Location: Unspecified
(50.0077°N, 36.2988°E)
Time: 04:23:45
(UTC+00:00)

X-37B - Pass Details

Date: 22 September 2020
Orbit: 382 x 392 km, 45.0° (Epoch: 15 October)

Event Time Altitude Azimuth Distance (km) Brightness Sun altitude
Exits shadow 02:46:21 - 245° (WSW) 1,569 3.0 -6.5°
Reaches altitude 10° 02:47:06 10° 234° (SW) 1,401 2.9 -6.3°
Maximum altitude 02:48:31 12° 208° (SSW) 1,266 2.8 -6.1°
Drops below altitude 10° 02:49:55 10° 181° (S) 1,400 3.3 -5.9°
Sets 02:52:53 0° 150° (SSE) 2,252 4.8 -5.4°
